User: anonymous   Login
Location: ??????
(33.3472°N, 35.4764°E)
Time: 03:03:51
(UTC+00:00)
Language:

Cosmos 2221 - Orbit

View from above orbital plane
View from above orbital plane
View from above satellite
View from above satellite

Ground track
Ground track

The orbit data is extracted from the following two-line orbital elements,

1 22236U 92080A   19289.49716132  .00000149  00000-0  13483-4 0  9993
2 22236  82.5083 335.1008 0017939  58.0322 302.2637 14.87861134453897
Epoch (UTC): 16 October 2019 11:55:54
Eccentricity: 0.0017939
inclination: 82.5083°
perigee height: 592 km
apogee height: 617 km
right ascension of ascending node: 335.1008°
argument of perigee: 58.0322°
revolutions per day: 14.87861134
mean anomaly at epoch: 302.2637°
orbit number at epoch: 45389

The dashed part of the orbit path shows where the satellite is in the earth's shadow,  

DLR